www.pogodaiklimat.ru

Погода и климат >> Архив погоды >> Россия >> город Москва >> Москва


АРХИВ ПОГОДЫ в Москве

Время (UTC), дата Ветер
(напр.,м/с)
 
Видим.   Явления Облачность Т
(С)
Тd
(С)
f
(%)
Тe
(С)
Тes
(С)
Комфортность P
(гПа)
Po
(гПа)
Тmin
(С)
Tmax
(С)
R
(мм)
R24
(мм)
S
(см)
03 17.04 СВ 1 10 км ясно +2.5 -5.3 56 +1 +2 прохладно 1033.2 1013.2 +2.4
06 17.04 В 1 10 км ясно +6.6 -6.0 40 +6 +13 по сезону 1034.3 1014.6 +2.4
09 17.04 В 1 10 км ясно +9.1 -7.2 31 +9 +23 опасность
простуды
1034.2 1014.6
12 17.04 В 2 10 км 6/0
[Ci fib]
+10.8 -9.3 23 +10 +17 по сезону 1032.9 1013.5
15 17.04 СВ 1 10 км 8/0
[Ci fib]
+10.4 -9.4 24 +11 +12 тепло 1031.5 1012.1
18 17.04 ЮВ 1 н/о 9/0
[Ci]
+7.5 -9.6 29 +8 +8 по сезону 1031.7 1012.1 +11.6
21 17.04 штиль 0 н/о 10/0
[Ac trans Cs]
+3.6 -6.0 49 +3 +3 по сезону 1031.7 1011.8
00 18.04 штиль 0 н/о 4/0
[Ci fib]
+1.7 -5.9 57 +1 +1 по сезону 1030.7 1010.7
03 18.04 штиль 0 10 км 8/0
[Ac trans Ci fib]
+0.5 -6.3 60 -0 0 прохладно 1029.5 1009.4 +0.5
06 18.04 СВ 1 10 км 9/0
[Ac trans Ci fib]
+9.8 -7.0 30 +10 +15 тепло 1027.6 1008.2 +0.5
09 18.04 СВ 2 10 км 8/8 1000 м
[Sc]
+10.6 -6.7 29 +10 +12 по сезону 1027.1 1007.8
12 18.04 СВ 3 10 км 10/10 1000 м
[Sc]
+10.6 -6.6 29 +9 +9 по сезону 1027.6 1008.3
15 18.04 СВ 2 10 км 8/5 1000 м
[Sc Ac trans]
+10.3 -7.5 28 +10 +10 по сезону 1028.0 1008.6
18 18.04 СВ 1 н/о 3/0
[Ac cast]
+8.1 -7.7 32 +8 +8 по сезону 1029.7 1010.2 +11.1
21 18.04 СВ 1 н/о 8/8 1000 м
[Sc]
+6.4 -4.3 46 +6 +6 по сезону 1030.6 1011.0
00 19.04 С 1 н/о 4/0
[Ac trans]
+4.4 -2.9 59 +4 +4 по сезону 1031.3 1011.4
03 19.04 С 1 10 км ясно +0.9 -2.7 77 -1 -1 холодно 1032.0 1011.9 +0.8
06 19.04 С 2 10 км ясно +6.0 -4.3 48 +4 +10 по сезону 1032.1 1012.4 +0.8
09 19.04 С 2 10 км 3/3 600 м
[Cu hum]
+10.6 -7.3 28 +10 +18 по сезону 1031.3 1011.9
12 19.04 СВ 1 10 км ясно +12.4 -8.1 23 +13 +23 тепло 1030.0 1010.7
15 19.04 СВ 1 10 км ясно +11.5 -8.5 24 +12 +14 тепло 1028.7 1009.4
18 19.04 штиль 0 н/о ясно +7.0 -4.6 43 +7 +7 по сезону 1028.9 1009.3 +13.1
21 19.04 штиль 0 н/о ясно +3.6 -3.2 61 +3 +3 по сезону 1028.2 1008.4
00 20.04 штиль 0 н/о 8/0
[Ci fib]
+1.8 -3.3 69 +1 +1 по сезону 1027.2 1007.3
03 20.04 штиль 0 10 км 10/0
[Ac trans Ci fib]
+2.7 -2.4 69 +2 +2 прохладно 1026.1 1006.2 +1.5
06 20.04 СЗ 1 10 км 10/0
[Cs]
+10.4 -5.3 33 +11 +16 тепло 1024.8 1005.5 +1.5
09 20.04 З 1 10 км 10/0
[As trans]
+12.8 -5.1 28 +13 +19 тепло 1024.2 1005.1
12 20.04 С 1 10 км 10/4 600 м
[Sc As trans]
+12.4 -3.5 33 +13 +15 по сезону 1024.4 1005.3
15 20.04 З 1 10 км 10/6 600 м
[Sc Ac As]
+11.9 -1.7 39 +12 +12 тепло 1024.5 1005.4
18 20.04 С 1 н/о 8/4 1000 м
[Sc Ac trans Ci fib]
+9.7 -0.4 49 +10 +10 по сезону 1025.4 1006.1 +13.1
21 20.04 В 1 н/о 9/9 600 м
[Sc]
+7.9 +0.8 61 +7 +7 по сезону 1026.0 1006.6
00 21.04 штиль 0 н/о 10/10 600 м
[Sc]
+7.3 +1.6 67 +7 +7 по сезону 1026.1 1006.7
03 21.04 В 1 10 км 9/9 1000 м
[Sc]
+7.1 +1.4 67 +6 +6 по сезону 1026.8 1007.3 +6.6
06 21.04 В 1 10 км 9/0
[Ac trans]
+11.1 0.0 46 +11 +15 тепло 1027.6 1008.3 +6.6
09 21.04 ЮВ 2 10 км 4/4 1000 м
[Sc]
+16.1 -5.5 22 +16 +23 тепло 1027.5 1008.6
12 21.04 СВ 1 10 км 5/5 1000 м
[Sc]
+17.2 -5.8 20 +18 +23 тепло 1026.8 1007.9
15 21.04 СВ 1 10 км 3/3 1000 м
[Sc]
+16.2 -6.7 20 +17 +18 тепло 1026.3 1007.4
18 21.04 штиль 0 н/о 1/0
[Ac trans]
+10.4 -1.2 44 +10 +10 по сезону 1027.7 1008.4 +18.0
21 21.04 штиль 0 н/о ясно +7.1 -1.7 54 +7 +7 по сезону 1028.6 1009.1
00 22.04 штиль 0 н/о ясно +4.2 -2.0 64 +4 +4 по сезону 1029.5 1009.7
03 22.04 штиль 0 10 км ясно +3.5 -0.7 74 +3 +3 прохладно 1029.9 1010.1 +3.1
06 22.04 С 1 10 км ясно +13.0 -2.0 35 +14 +21 тепло 1030.1 1010.9 +3.1
09 22.04 С 2 10 км 8/5 1000 м
[Sc Ac trans]
+16.3 -4.5 24 +17 +20 тепло 1029.6 1010.7
12 22.04 СЗ 2 10 км 6/3 1000 м
[Sc Ac trans]
+17.5 -4.2 22 +18 +22 тепло 1028.0 1009.2
15 22.04 С 2 10 км 3/0
[Ci fib]
+17.9 -4.5 21 +18 +20 тепло 1026.7 1007.9
18 22.04 штиль 0 н/о 4/0
[Ci sp]
+12.4 -2.2 36 +12 +12 тепло 1027.4 1008.2 +18.8
21 22.04 штиль 0 н/о ясно +8.9 0.0 54 +9 +9 по сезону 1027.9 1008.5
00 23.04 штиль 0 н/о ясно +7.9 +0.9 61 +7 +7 по сезону 1028.4 1008.9
03 23.04 штиль 0 10 км 8/0
[Cs]
+6.8 +1.4 68 +6 +7 по сезону 1028.9 1009.3 +6.2
06 23.04 СЗ 1 10 км 8/0
[Ac trans]
+15.0 -2.3 30 +16 +20 тепло 1028.6 1009.5 +6.2
09 23.04 СЗ 2 10 км 10/6 600 м
[Sc Ac und]
+17.0 -1.7 28 +17 +19 тепло 1028.3 1009.4
12 23.04 СЗ 2
{12}
10 км 10/10 600 м
[Sc]
+17.6 -2.5 25 +18 +18 тепло 1027.1 1008.3
15 23.04 СЗ 2
{12}
10 км 6/3 600 м
[Sc Ac trans Ci fib]
+17.8 -1.5 27 +18 +19 тепло 1026.1 1007.3
18 23.04 СЗ 1
{12}
н/о 3/0
[Ci fib]
+14.3 -0.7 36 +15 +15 тепло 1026.7 1007.6 +18.3
21 23.04 СЗ 1 н/о ясно +12.3 +0.1 43 +13 +13 тепло 1027.4 1008.2

 

Местоположение метеостанции Москва (город Москва, Россия): широта 55.83 долгота 37.62 высота над уровнем моря 156 м.

В архиве по умолчанию представлена погода в Москве за последнюю неделю. Архивные данные за месяц целиком и за предыдущие месяцы, начиная с января 2011 года, Вы можете получить, выбрав интересующий диапазон дат из раскрывающегося списка и нажав кнопку "Ввод!".


*Определитесь, кто Вы:
робот инопланетянин человек

Внимание! Время в таблицах - всемирное. Для получения местного времени необходимо прибавить поправку, которая равна 3 ч.

Смотрите также архив погоды в соседних городах и на ближайших метеорологических станциях:

Погода в Москве (Балчуг) (город Москва, Россия) (9 км)
Погода в Москве (Тушино) (город Москва, Россия) (12 км)
Погода в Долгопрудном (Московская область, Россия) (13 км)
Погода в Москве (Строгино) (город Москва, Россия) (14 км)
Погода в Красногорске (Московская область, Россия) (18 км)
Погода в Шереметьево (Московская область, Россия) (20 км)
Погода в Немчиновке (город Москва, Россия) (21 км)
Погода в Железнодорожном АМС (Московская область, Россия) (23 км)
Погода в Луговой (Московская область, Россия) (26 км)
Погода в Пушкино (Московская область, Россия) (26 км)

Пояснения к столбцам:

Ветер - указаны скорость ветра в м/с - средняя за 10 мин, порывы в срок и между сроками (в фигурных скобках) и направление, откуда дует ветер: С - северный, СВ - северо-восточный, В - восточный, ЮВ - юго-восточный, Ю - южный, ЮЗ - юго-западный, З - западный, СЗ - северо-западный.
Видимость - горизонтальная дальность видимости в метрах или километрах. При видимости от 1 до 10 км при отсутствии осадков обычно наблюдается дымка, при ухудшении видимости до 1 км и менее - туман. В сухую погоду видимость может ухудшаться дымом, пылью или мглою.
Явления - указаны атмосферные явления, наблюдавшиеся в срок или в последний час перед сроком; фигурными скобками обозначены явления, наблюдавшиеся между сроками (за 1-3 часа до срока); квадратными скобками обозначены град или гололедные отложения с указанием их диаметра в мм.
Облачность - указаны через наклонную черту общая и нижняя облачность в баллах и высота нижней границы облаков в метрах; квадратными скобками обозначены формы облаков: Ci - перистые, Cs - перисто-слоистые, Cc - перисто-кучевые, Ac - высококучевые, As - высокослоистые, Sc - слоисто-кучевые, Ns - слоисто-дождевые, Cu - кучевые, Cb - кучево-дождевые. Подробнее классификацию облаков см. в Атласе облаков (PDF).
T - Температура воздуха - температура, измеренная на высоте 2 м над землей.
Td - Температура точки росы - температура, при понижении до которой содержащийся в воздухе водяной пар достигнет насыщения.
f - Относительная влажность воздуха - влажноcть воздуха, измеренная на высоте 2 м над землей.
Te - Эффективная температура - температура, которую ощущает одетый по сезону человек в тени. Характеристика душности погоды. При расчете учитывается влияние влажности воздуха и скорости ветра на теплоощущения человека.
Tes - Эффективная температура на солнце - температура, которую ощущает человек, с поправкой на солнечный нагрев. Характеристика знойности погоды. Зависит от высоты солнца над горизонтом, облачности и скорости ветра. Ночью, в пасмурную погоду, а также при ветре 12 м/с и более поправка равна нулю.
P - Атмосферное давление - приведенное к уровню моря атмосферное давление.
Po - Атмосферное давление - измеренное на уровне метеостанции атмосферное давление.
Tmin - Минимальная температура - минимум температуры воздуха на высоте 2 м над землей.
Tmax - Максимальная температура - максимум температуры воздуха на высоте 2 м над землей.
R - Количество осадков - Количество выпавших осадков за период времени, мм. При наведении курсора мыши на число - период времени, за который выпало указанное количество осадков.
R24 - Количество осадков - Количество выпавших осадков за 24 часа, мм.
S - Снежный покров - Высота снежного покрова, см. При наведении курсора мыши на число - состояние снежного покрова и степень покрытия местности в баллах.